Weather History for KMVY - August, 2012

Change the Weather History Date:

Thursday, August 30, 2012

  Actual Average Record
Temperature  
Mean Temperature 64 °F -  
Max Temperature 80 °F 76 °F 92 °F (1948)
Min Temperature 48 °F 60 °F 39 °F (2014)
Degree Days  
Heating Degree Days 2    
Growing Degree Days 14 (Base 50)    
Moisture  
Dew Point 54 °F    
Average Humidity 64    
Maximum Humidity 90    
Minimum Humidity 39    
Precipitation  
Precipitation 0.00 in - - ()
Sea Level Pressure  
Sea Level Pressure 30.02 in    
Wind  
Wind Speed 6 mph (WSW)    
Max Wind Speed 16 mph    
Max Gust Speed 25 mph    
Visibility 10 miles    
Events      
Averages and records for this station are not official NWS values.
T = Trace of Precipitation, MM = Missing Value Source: NWS Daily Summary

Daily Weather History Graph

Daily Weather History Graph

Search for Another Location

Airport or City:

Trip Planner

Search our weather history database for the weather conditions in past years. The results will help you decide how hot, cold, wet, or windy it might be!

Date:

Astronomy

Aug. 30, 2012 Rise Set
Actual Time 6:07 AM EDT 7:17 PM EDT
Civil Twilight 5:38 AM EDT 7:46 PM EDT
Nautical Twilight 5:04 AM EDT 8:20 PM EDT
Astronomical Twilight 4:28 AM EDT 8:56 PM EDT
Moon 6:30 PM EDT (8/30) 5:04 AM EDT (8/30)
Length of Visible Light 14h 07m
Length of Day
13h 10m
Waxing Gibbous, 99% of the Moon is Illuminated
Aug 30
Waxing Gibbous
Aug 31
Full
Sep 8
Last Quarter
Sep 15
New
Sep 22
First Quarter

Hourly Weather History & Observations

Time (EDT) Temp. Dew Point Humidity Pressure Visibility Wind Dir Wind Speed Gust Speed Precip Events Conditions
12:53 AM 50.0 °F 46.0 °F 86% 29.99 in 10.0 mi Calm Calm - N/A   Clear
1:53 AM 48.9 °F 45.0 °F 86% 29.99 in 10.0 mi WNW 3.5 mph - N/A   Clear
2:53 AM 50.0 °F 46.9 °F 89% 29.99 in 10.0 mi Calm Calm - N/A   Clear
3:53 AM 48.9 °F 46.0 °F 90% 29.99 in 10.0 mi West 4.6 mph - N/A   Clear
4:53 AM 50.0 °F 46.0 °F 86% 29.99 in 10.0 mi WNW 3.5 mph - N/A   Clear
5:53 AM 50.0 °F 46.0 °F 86% 30.00 in 10.0 mi WNW 4.6 mph - N/A   Clear
6:53 AM 55.0 °F 51.1 °F 86% 30.02 in 10.0 mi Variable 3.5 mph - N/A   Clear
7:53 AM 68.0 °F 59.0 °F 73% 30.06 in 10.0 mi WNW 3.5 mph - N/A   Clear
8:53 AM 73.0 °F 57.9 °F 59% 30.06 in 10.0 mi WNW 3.5 mph - N/A   Clear
9:53 AM 75.9 °F 57.9 °F 54% 30.05 in 10.0 mi SSW 10.4 mph - N/A   Clear
10:53 AM 78.1 °F 54.0 °F 43% 30.06 in 10.0 mi WSW 9.2 mph - N/A   Clear
11:53 AM 77.0 °F 52.0 °F 42% 30.06 in 10.0 mi WSW 9.2 mph 18.4 mph N/A   Clear
12:53 PM 78.1 °F 51.1 °F 39% 30.06 in 10.0 mi West 11.5 mph 18.4 mph N/A   Clear
1:53 PM 79.0 °F 52.0 °F 39% 30.04 in 10.0 mi WSW 13.8 mph 25.3 mph N/A   Clear
2:53 PM 78.1 °F 52.0 °F 40% 30.02 in 10.0 mi WSW 16.1 mph 23.0 mph N/A   Clear
3:53 PM 78.1 °F 55.0 °F 45% 30.02 in 10.0 mi WSW 12.7 mph 19.6 mph N/A   Clear
4:53 PM 75.9 °F 55.0 °F 48% 30.02 in 10.0 mi WSW 10.4 mph 20.7 mph N/A   Clear
5:53 PM 75.0 °F 57.9 °F 55% 30.02 in 10.0 mi WSW 11.5 mph - N/A   Clear
6:53 PM 72.0 °F 60.1 °F 66% 30.01 in 10.0 mi WSW 9.2 mph - N/A   Clear
7:53 PM 71.1 °F 61.0 °F 70% 30.01 in 10.0 mi SW 9.2 mph - N/A   Clear
8:53 PM 71.1 °F 60.1 °F 68% 30.01 in 10.0 mi WSW 6.9 mph - N/A   Clear
9:53 PM 72.0 °F 57.0 °F 59% 30.01 in 10.0 mi WSW 9.2 mph - N/A   Clear
10:53 PM 72.0 °F 57.9 °F 61% 30.00 in 10.0 mi WSW 8.1 mph - N/A   Clear
11:53 PM 72.0 °F 60.1 °F 66% 29.99 in 10.0 mi WSW 9.2 mph - N/A   Clear